User: anonymous   Login
Location: Newark
(43.0000°N, 1.6781°W)
Time: 07:42:01
(UTC+00:00)
Language:

M-CUBED/EXP-1 PRIME - Orbit

View from above orbital plane
View from above orbital plane
View from above satellite
View from above satellite

Ground track
Ground track

The orbit data is extracted from the following two-line orbital elements,

1 37855U 11061F   22330.56139254  .00011556  00000-0  46843-3 0  9998
2 37855 101.7150 176.1161 0143806 295.5627  63.0784 15.15934894605767
Epoch (UTC): 26 November 2022 13:28:24
Eccentricity: 0.0143806
inclination: 101.7150°
perigee height: 419 km
apogee height: 617 km
right ascension of ascending node: 176.1161°
argument of perigee: 295.5627°
revolutions per day: 15.15934894
mean anomaly at epoch: 63.0784°
orbit number at epoch: 60576

The dashed part of the orbit path shows where the satellite is in the earth's shadow,  

DLR